Regional Weather Roundup
Issued by NWS Upton, NY

Current Version | Previous Version | Text Only | Print | Product List | Glossary On
Versions: 1 2 3 4 5 6 7 8 9 10 11 12 13 14 15 16 17 18 19 20 21 22 23 24 25 26 27
000 ASUS41 KOKX 251608 RWROKX REGIONAL WEATHER ROUNDUP NATIONAL WEATHER SERVICE NEW YORK NY 1100 AM EST SAT FEB 25 2017 NOTE: "FAIR" INDICATES FEW OR NO CLOUDS BELOW 12,000 FEET WITH NO SIGNIFICANT WEATHER AND/OR OBSTRUCTIONS TO VISIBILITY. NYZ071-072-176-178-NJZ106-104-251700- NEW YORK CITY METRO AREA CITY SKY/WX TMP DP RH WIND PRES REMARKS Central Park MOSUNNY 57 53 86 S10G17 29.72F Wall St Helipt NOT AVBL LaGuardia APRT CLOUDY 58 54 86 S7 29.71F FOG Kennedy INTL FOG 54 54 100 SE9 29.73F VSB 1/4 Breezy Point N/A 46 N/A N/A S9 N/A Newark/Liberty PTSUNNY 58 51 78 E7 29.69F Teterboro MOSUNNY 64 55 72 SE14 29.68F $$ NYZ177-179-078>081-251700- LONG ISLAND NEW YORK CITY SKY/WX TMP DP RH WIND PRES REMARKS Jones Beach N/A 48 N/A N/A S10 N/A Matinecock PT NOT AVBL Farmingdale CLOUDY 56 55 97 SE10 29.73F MacArthur/ISP CLOUDY 59 55 87 S7 29.74F Shirley MOSUNNY 62 56 80 S13G20 29.75F Westhampton MOSUNNY 63 54 72 SE13 29.76F Southampton NOT AVBL Bridgehampton NOT AVBL East Hampton N/A 56 51 82 SE13 29.76F Montauk N/A 54 52 93 SE13G20 29.77F $$ NYZ052-065-067-251700- HUDSON VALLEY CITY SKY/WX TMP DP RH WIND PRES REMARKS White Plains FOG 56 55 97 SE7 29.71F VSB 1/2 Newburgh NOT AVBL Montgomery PTSUNNY 64 56 75 S15G22 29.64F Poughkeepsie CLOUDY 64 55 72 VRB6 29.66F Albany PTSUNNY 67 53 61 S24G33 29.62F $$ NJZ001-105-106-008-010-013-015-019>022-104-251700- NEW JERSEY CITY SKY/WX TMP DP RH WIND PRES REMARKS Newark/Liberty PTSUNNY 58 51 78 E7 29.69F Teterboro MOSUNNY 64 55 72 SE14 29.68F Caldwell SUNNY 66 55 67 S9G18 29.68F Somerville MOSUNNY 71 55 56 S16 29.64F Linden NOT AVBL Sussex MOSUNNY 69 56 62 S14G20 29.64F Andover N/A 66 55 67 S9G21 29.65F Trenton SUNNY 69 57 65 S13G21 29.67F Millville SUNNY 67 59 75 S10G22 29.69F Atlantic City SUNNY 63 55 75 S13 29.71F Wrightstown SUNNY 69 57 64 S13G22 29.65F Toms River PTSUNNY 68 58 70 S13G20 29.71F Belmar PTSUNNY 60 56 86 S10G17 29.72F $$ PAZ047>061-062-071-251700- EASTERN PENNSYLVANIA CITY SKY/WX TMP DP RH WIND PRES REMARKS Philadelphia PTSUNNY 69 56 62 S15G25 29.67F Allentown MOSUNNY 69 56 62 S16G25 29.62F Scranton CLOUDY 64 56 75 S10G28 29.56F $$ CTZ002-004>006-009-010-012-RIZ004-006-007-MAZ004-011-015-251700- SOUTHERN NEW ENGLAND IN CT CITY SKY/WX TMP DP RH WIND PRES REMARKS Bradley INTL CLOUDY 60 55 83 S10 29.74F Hartford CLOUDY 60 56 86 S12 29.74F Danbury CLOUDY 57 54 89 SE8 29.73F Wtrbury/Oxford CLOUDY 55 54 94 S13G18 29.74F FOG Bridgeport FOG 47 46 97 E12 29.74F VSB 1/4 Meriden CLOUDY 59 54 83 S7 29.74F New Haven CLOUDY 54 54 100 SE9 29.75F FOG Chester CLOUDY 57 57 100 VRB3 29.76F Groton PTSUNNY 56 50 80 SE9 29.76F Wilimantic CLOUDY 61 56 83 SW5 29.76F IN RI CITY SKY/WX TMP DP RH WIND PRES REMARKS Providence CLOUDY 58 52 80 S12 29.79F Block Island MOSUNNY 57 51 80 SE17 29.78F Westerly PTSUNNY 58 50 75 SE13G24 29.78F IN MA CITY SKY/WX TMP DP RH WIND PRES REMARKS Boston MOSUNNY 63 55 75 S13 29.77F Worcester PTSUNNY 57 55 93 S12 29.75F Westfield CLOUDY 60 56 86 S12G17 29.71F FOG Provincetown MOSUNNY 64 54 69 S13 29.82F Nantucket MOSUNNY 57 49 74 SE17 29.81F $$ ANZ330-335-338-340-345-350-353-355-251700- COASTAL MARINE OBSERVATIONS STATION/POSITION TIME SKY/WX TEMP WIND PRES VSBY WAVE AIR SEA DIR/SP/G HT/PER (UTC) (F) (DEG/KT/KT) (MB) (MI) (FT/S) NY HARB ENTRANCE 1450 47 44 150/ 12/ 14 1006.8 4/ 8 20 S FIRE ISLAND 1550 49 44 160/ 8/ 10 1006.8 4/ 8 GREAT SOUTH BAY NOT AVBL 23 SSW MONTAUK P 1450 48 44 1009.2 4/10 15 E BARNEGAT LI 1530 44 N/A 5/11 HUDSON CANYON 1450 47 1008.2 5/10 KINGS POINT 1548 50 41 1006.3 EXECUTION ROCKS NOT AVBL CENTRAL LI SOUND NOT AVBL EASTERN LI SOUND NOT AVBL ROBBINS REEF 1548 50 170/ 11/ 12 1006.0 $$ >>>>>>>>>>>>>>>>>>>>>>>>>>>> KEY <<<<<<<<<<<<<<<<<<<<<<<<<<< > < > SKY/WX - Sky Condition/Present Weather < > TMP - Temperature in Fahrenheit < > DP - Dew Point in Fahrenheit < > RH - Relative Humidity in Percent < > WIND - Direction (from) and Speed in MPH < > PRES - Mean Sea Level Pressure (inches of Hg) < > WCI - Wind Chill Index < > VSB - VISIBILITY IN MILES < > HX - HEAT INDEX < > TC - TEMPERATURE IN CELSIUS < > VRB - VARIABLE WIND DIRECTION < > < >>>>>>>>>>>>>>>>>>>>>>>>>>>> KEY <<<<<<<<<<<<<<<<<<<<<<<<<<<

USA.gov is the U.S. government's official web portal to all federal, state and local government web resources and services.